Regional Weather Roundup
Issued by NWS

Home | Current Version | Previous Version | Graphics & Text | Print | Product List | Glossary On
Versions: 1 2 3 4 5 6 7 8 9 10 11 12 13 14 15 16 17 18 19 20 21 22 23 24 25 26 27
000
ASUS45 KPSR 272310
RWRAZ

ARIZONA HOURLY REGIONAL WEATHER ROUNDUP
NATIONAL WEATHER SERVICE PHOENIX AZ
400 PM MST SAT AUG 27 2016

NOTE: FAIR INDICATES FEW OR NO CLOUDS BELOW 12,000 FEET WITH NO
SIGNIFICANT WEATHER AND/OR OBSTRUCTIONS TO VISIBILITY.

AZZ001>003-036-280000-
NORTHWEST ARIZONA

CITY           SKY/WX    TMP DP  RH WIND       PRES   REMARKS
BULLHEAD CITY  PTSUNNY   91  50  24 CALM      29.87F
KINGMAN        PTSUNNY   76  53  44 VRB5      30.06F
$$

AZZ004>008-015-016-018-280000-
NORTH CENTRAL ARIZONA

CITY           SKY/WX    TMP DP  RH WIND       PRES   REMARKS
GRAND CANYON   CLOUDY    64  49  57 MISG      30.22F
PRESCOTT       PTSUNNY   76  51  41 N6        30.13F
FLAGSTAFF      MOSUNNY   66  45  46 SW15G21   30.23F
PAYSON         MOSUNNY   75  45  33 VRB6      30.17S
PAGE           PTSUNNY   72  51  47 N8        30.12S
$$

AZZ009>014-017-280000-
NORTHEAST ARIZONA

CITY           SKY/WX    TMP DP  RH WIND       PRES   REMARKS
WINSLOW        MOSUNNY   74  52  46 SE15      30.12F
SAINT JOHNS    SUNNY     67  53  61 CALM      30.20F
SHOW LOW       MOSUNNY   64  48  55 CALM      30.24S
$$

AZZ023-280000-
GREATER PHOENIX AREA

CITY           SKY/WX    TMP DP  RH WIND       PRES   REMARKS
PHOENIX        MOSUNNY   96  48  19 NW7       29.84F
BUCKEYE        SUNNY     95  41  15 CALM      29.87F
GLENDALE       MOSUNNY   99  45  15 SW9       29.87F
LUKE AFB       SUNNY     96  42  16 W7        29.84F
DEER VALLEY    SUNNY     94  43  17 W10       29.87F
SCOTTSDALE     SUNNY     94  44  17 S8        29.89F
MESA-FALCON    MOSUNNY  N/A N/A N/A SW12G23   29.84F
MESA-GATEWAY   MOSUNNY   93  43  17 W8        29.88F
CHANDLER       SUNNY     97  41  14 SW6       29.86F
$$

AZZ027-028-280000-
SOUTHWEST MARICOPA COUNTY AND PINAL COUNTY

CITY           SKY/WX    TMP DP  RH WIND       PRES   REMARKS
CASA GRANDE    SUNNY     97  39  13 SW9       29.88F
GILA BEND      FAIR      98  39  13 NW8       29.81F
$$

AZZ503-504-507>509-280000-
SOUTHEAST ARIZONA

CITY           SKY/WX    TMP DP  RH WIND       PRES   REMARKS
TUCSON         SUNNY     94  34  12 S6        29.94F
DAVIS-MONTHAN  SUNNY     93  35  12 S7        29.93F
RYAN FIELD     SUNNY     93  36  13 SW12      29.94F
NOGALES        MOSUNNY   88  41  19 S8        30.03F
SIERRA VISTA   MOSUNNY   84  36  17 S15       30.09F
DOUGLAS        CLOUDY    89  44  20 SW13G21   30.03S
SAFFORD        SUNNY     90  47  22 NW17      29.95F
$$

AZZ020-021-025-026-031-280000-
SOUTHWEST ARIZONA

CITY           SKY/WX    TMP DP  RH WIND       PRES   REMARKS
YUMA           SUNNY     98  56  24 SW5       29.77F
$$

CAZ031-033-041-043-047-048-061-280000-
SOUTHERN CALIFORNIA

CITY           SKY/WX    TMP DP  RH WIND       PRES   REMARKS
DOWNTOWN L.A.  SUNNY     74  59  59 W8        29.94F
L.A. AIRPORT   SUNNY     72  58  61 W17       29.95F
SAN DIEGO      MOSUNNY   74  58  57 NW13      29.96F
BURBANK        SUNNY     79  58  48 S10       29.93F
ONTARIO        MOSUNNY   83  53  35 W12       29.93F
RIVERSIDE      SUNNY     84  54  35 W8        29.92F
PALM SPRINGS   MOSUNNY  100  52  19 E9        29.82F
EL CENTRO NAS  MOSUNNY  101  49  17 E9        29.78F
IMPERIAL       SUNNY    102  55  20 E6        29.76F HX 100
BLYTHE         SUNNY     99  52  20 N7        29.81F
NEEDLES        PTSUNNY   90  59  35 MISG      29.89F
$$

NVZ020-UTZ003-280000-
SOUTHERN NEVADA-UTAH

CITY           SKY/WX    TMP DP  RH WIND       PRES   REMARKS
LAS VEGAS      PTSUNNY   90  45  21 NE9       29.93F
SALT LAKE CITY MOSUNNY   88  29  12 N9G21     29.99F
$$

NMZ009-TXZ055-280000-
NEW MEXICO-WEST TEXAS

CITY           SKY/WX    TMP DP  RH WIND       PRES   REMARKS
ALBUQUERQUE    CLOUDY    72  49  44 W28G37    30.16R THUNDER
EL PASO        PTSUNNY   87  56  34 SW7       29.98S
$$


........................KEY........................
SKY/WX - SKY CONDITION/WEATHER
TMP    - TEMPERATURE IN FAHRENHEIT
DP     - DEW POINT IN FAHRENHEIT
RH     - RELATIVE HUMIDITY IN PERCENT
WIND   - DIRECTION AND SPEED IN MILES PER HOUR (MPH)
VRB    - VARIABLE WIND DIRECTION
PRES   - MEAN SEA LEVEL PRESSURE IN INCHES OF MERCURY
         F - FALLING PRESSURE   R - RISING PRESSURE
         S - STEADY PRESSURE
VSB    - VISIBILITY IN MILES
HX     - HEAT INDEX IN FAHRENHEIT
WCI    - WIND CHILL INDEX IN FAHRENHEIT
TC     - TEMPERATURE IN CELSIUS WHICH IS ALSO KNOWN AS
         TEMPERATURE IN CENTIGRADE
AFB    - AIR FORCE BASE
         LUKE AFB IS LUKE AIR FORCE BASE
         DAVIS-MONTHAN IS DAVIS-MONTHAN AIR FORCE BASE
NAS    - NAVAL AIR STATION
         EL CENTRO NAS IS EL CENTRO NAVAL AIR STATION
N/A    - NOT AVAILABLE





USA.gov is the U.S. government's official web portal to all federal, state and local government web resources and services.